Year,Month,Day,Hour,Minute,Value (Times are PST for temperature in C)
2005,04,28,00,00,16.90
2005,04,28,00,01,16.90
2005,04,28,00,02,16.90
2005,04,28,00,03,16.90
2005,04,28,00,04,16.90
2005,04,28,00,05,16.90
2005,04,28,00,06,16.90
2005,04,28,00,07,16.90
2005,04,28,00,08,16.80
2005,04,28,00,09,16.80
2005,04,28,00,10,16.70
2005,04,28,00,11,16.70
2005,04,28,00,12,16.70
2005,04,28,00,13,16.70
2005,04,28,00,14,16.70
2005,04,28,00,15,16.70
2005,04,28,00,17,16.70
2005,04,28,00,20,16.60
2005,04,28,00,23,16.40
2005,04,28,00,27,16.40
2005,04,28,00,28,16.40
2005,04,28,00,29,16.40
2005,04,28,00,31,16.30
2005,04,28,00,32,16.30
2005,04,28,00,33,16.30
2005,04,28,00,34,16.30
2005,04,28,00,35,16.30
2005,04,28,00,36,16.30
2005,04,28,00,37,16.20
2005,04,28,00,38,16.20
2005,04,28,00,39,16.20
2005,04,28,00,40,16.20
2005,04,28,00,41,16.10
2005,04,28,00,42,16.10
2005,04,28,00,43,16.10
2005,04,28,00,44,16.10
2005,04,28,00,45,16.10
2005,04,28,00,46,16.10
2005,04,28,00,47,16.10
2005,04,28,00,48,16.10
2005,04,28,00,49,16.10
2005,04,28,00,50,16.10
2005,04,28,00,51,15.90
2005,04,28,00,52,15.90
2005,04,28,00,53,15.90
2005,04,28,00,54,15.80
2005,04,28,00,55,15.80
2005,04,28,00,56,15.80
2005,04,28,00,57,15.80
2005,04,28,00,58,15.80
2005,04,28,00,59,15.80
2005,04,28,01,00,15.80
2005,04,28,01,01,15.70
2005,04,28,01,02,15.70
2005,04,28,01,03,15.60
2005,04,28,01,04,15.60
2005,04,28,01,05,15.60
2005,04,28,01,06,15.50
2005,04,28,01,07,15.50
2005,04,28,01,08,15.50
2005,04,28,01,09,15.40
2005,04,28,01,10,15.40
2005,04,28,01,11,15.30
2005,04,28,01,12,15.30
2005,04,28,01,13,15.30
2005,04,28,01,14,15.30
2005,04,28,01,15,15.30
2005,04,28,01,16,15.20
2005,04,28,01,17,15.20
2005,04,28,01,18,15.10
2005,04,28,01,19,15.10
2005,04,28,01,20,15.00
2005,04,28,01,21,15.00
2005,04,28,01,22,14.90
2005,04,28,01,23,14.90
2005,04,28,01,24,14.80
2005,04,28,01,25,14.80
2005,04,28,01,26,14.80
2005,04,28,01,27,14.70
2005,04,28,01,28,14.70
2005,04,28,01,29,14.60
2005,04,28,01,30,14.60
2005,04,28,01,31,14.50
2005,04,28,01,32,14.50
2005,04,28,01,33,14.40
2005,04,28,01,34,14.40
2005,04,28,01,35,14.40
2005,04,28,01,36,14.30
2005,04,28,01,37,14.30
2005,04,28,01,38,14.20
2005,04,28,01,39,14.20
2005,04,28,01,40,14.20
2005,04,28,01,41,14.20
2005,04,28,01,42,14.20
2005,04,28,01,43,14.20
2005,04,28,01,44,14.10
2005,04,28,01,45,14.10
2005,04,28,01,46,14.10
2005,04,28,01,47,14.00
2005,04,28,01,48,14.00
2005,04,28,01,49,14.00
2005,04,28,01,50,13.90
2005,04,28,01,51,13.80
2005,04,28,01,52,13.80
2005,04,28,01,53,13.70
2005,04,28,01,54,13.70
2005,04,28,01,55,13.70
2005,04,28,01,56,13.60
2005,04,28,01,57,13.60
2005,04,28,01,58,13.50
2005,04,28,01,59,13.50
2005,04,28,02,00,13.50
2005,04,28,02,01,13.50
2005,04,28,02,02,13.40
2005,04,28,02,03,13.40
2005,04,28,02,04,13.40
2005,04,28,02,05,13.40
2005,04,28,02,06,13.40
2005,04,28,02,07,13.40
2005,04,28,02,08,13.40
2005,04,28,02,09,13.40
2005,04,28,02,10,13.40
2005,04,28,02,11,13.40
2005,04,28,02,12,13.50
2005,04,28,02,13,13.50
2005,04,28,02,14,13.50
2005,04,28,02,15,13.50
2005,04,28,02,16,13.50
2005,04,28,02,17,13.40
2005,04,28,02,18,13.40
2005,04,28,02,19,13.30
2005,04,28,02,20,13.30
2005,04,28,02,21,13.30
2005,04,28,02,22,13.30
2005,04,28,02,23,13.30
2005,04,28,02,24,13.20
2005,04,28,02,25,13.10
2005,04,28,02,26,13.10
2005,04,28,02,27,13.10
2005,04,28,02,28,13.00
2005,04,28,02,29,12.90
2005,04,28,02,30,12.90
2005,04,28,02,31,12.90
2005,04,28,02,32,12.80
2005,04,28,02,33,12.80
2005,04,28,02,34,12.80
2005,04,28,02,35,12.80
2005,04,28,02,36,12.80
2005,04,28,02,37,12.80
2005,04,28,02,38,12.70
2005,04,28,02,39,12.70
2005,04,28,02,40,12.70
2005,04,28,02,41,12.60
2005,04,28,02,42,12.50
2005,04,28,02,43,12.40
2005,04,28,02,44,12.30
2005,04,28,02,45,12.30
2005,04,28,02,46,12.20
2005,04,28,02,47,12.20
2005,04,28,02,48,12.20
2005,04,28,02,49,12.00
2005,04,28,02,50,11.90
2005,04,28,02,51,11.90
2005,04,28,02,52,11.80
2005,04,28,02,53,11.80
2005,04,28,02,54,11.80
2005,04,28,02,55,11.70
2005,04,28,02,56,11.60
2005,04,28,02,57,11.60
2005,04,28,02,58,11.60
2005,04,28,02,59,11.60
2005,04,28,03,00,11.50
2005,04,28,03,01,11.40
2005,04,28,03,02,11.40
2005,04,28,03,03,11.40
2005,04,28,03,04,11.40
2005,04,28,03,05,11.40
2005,04,28,03,06,11.40
2005,04,28,03,07,11.40
2005,04,28,03,08,11.40
2005,04,28,03,09,11.30
2005,04,28,03,10,11.30
2005,04,28,03,11,11.30
2005,04,28,03,12,11.30
2005,04,28,03,13,11.30
2005,04,28,03,14,11.30
2005,04,28,03,15,11.30
2005,04,28,03,16,11.40
2005,04,28,03,17,11.40
2005,04,28,03,18,11.40
2005,04,28,03,19,11.40
2005,04,28,03,20,11.40
2005,04,28,03,21,11.40
2005,04,28,03,22,11.50
2005,04,28,03,23,11.60
2005,04,28,03,24,11.60
2005,04,28,03,25,11.60
2005,04,28,03,26,11.60
2005,04,28,03,27,11.60
2005,04,28,03,28,11.60
2005,04,28,03,29,11.60
2005,04,28,03,30,11.70
2005,04,28,03,31,11.70
2005,04,28,03,32,11.70
2005,04,28,03,33,11.60
2005,04,28,03,34,11.60
2005,04,28,03,35,11.60
2005,04,28,03,36,11.60
2005,04,28,03,37,11.60
2005,04,28,03,38,11.60
2005,04,28,03,39,11.60
2005,04,28,03,40,11.40
2005,04,28,03,41,11.40
2005,04,28,03,42,11.40
2005,04,28,03,43,11.40
2005,04,28,03,44,11.40
2005,04,28,03,45,11.40
2005,04,28,03,46,11.40
2005,04,28,03,47,11.40
2005,04,28,03,48,11.40
2005,04,28,03,49,11.40
2005,04,28,03,50,11.40
2005,04,28,03,51,11.40
2005,04,28,03,52,11.40
2005,04,28,03,53,11.40
2005,04,28,03,54,11.40
2005,04,28,03,55,11.40
2005,04,28,03,56,11.40
2005,04,28,03,57,11.40
2005,04,28,03,58,11.40
2005,04,28,03,59,11.40
2005,04,28,04,00,11.40
2005,04,28,04,01,11.40
2005,04,28,04,02,11.40
2005,04,28,04,03,11.40
2005,04,28,04,04,11.40
2005,04,28,04,05,11.40
2005,04,28,04,06,11.60
2005,04,28,04,07,11.60
2005,04,28,04,08,11.70
2005,04,28,04,09,11.70
2005,04,28,04,10,11.70
2005,04,28,04,11,11.70
2005,04,28,04,12,11.70
2005,04,28,04,13,11.60
2005,04,28,04,14,11.60
2005,04,28,04,15,11.40
2005,04,28,04,16,11.40
2005,04,28,04,17,11.40
2005,04,28,04,18,11.40
2005,04,28,04,19,11.40
2005,04,28,04,20,11.40
2005,04,28,04,21,11.40
2005,04,28,04,22,11.40
2005,04,28,04,23,11.40
2005,04,28,04,24,11.40
2005,04,28,04,25,11.40
2005,04,28,04,26,11.40
2005,04,28,04,27,11.40
2005,04,28,04,28,11.40
2005,04,28,04,29,11.40
2005,04,28,04,30,11.30
2005,04,28,04,31,11.30
2005,04,28,04,32,11.30
2005,04,28,04,33,11.30
2005,04,28,04,34,11.40
2005,04,28,04,35,11.40
2005,04,28,04,36,11.40
2005,04,28,04,37,11.40
2005,04,28,04,38,11.40
2005,04,28,04,39,11.40
2005,04,28,04,40,11.60
2005,04,28,04,41,11.60
2005,04,28,04,42,11.60
2005,04,28,04,43,11.60
2005,04,28,04,44,11.60
2005,04,28,04,45,11.60
2005,04,28,04,46,11.60
2005,04,28,04,47,11.60
2005,04,28,04,48,11.70
2005,04,28,04,49,11.70
2005,04,28,04,50,11.70
2005,04,28,04,51,11.80
2005,04,28,04,52,11.80
2005,04,28,04,53,11.80
2005,04,28,04,54,11.80
2005,04,28,04,55,11.80
2005,04,28,04,56,11.80
2005,04,28,04,57,11.80
2005,04,28,04,58,11.80
2005,04,28,04,59,11.80
2005,04,28,05,00,11.80
2005,04,28,05,01,11.80
2005,04,28,05,02,11.80
2005,04,28,05,03,11.80
2005,04,28,05,04,11.70
2005,04,28,05,05,11.70
2005,04,28,05,06,11.70
2005,04,28,05,07,11.70
2005,04,28,05,08,11.70
2005,04,28,05,09,11.70
2005,04,28,05,10,11.60
2005,04,28,05,11,11.50
2005,04,28,05,12,11.40
2005,04,28,05,13,11.40
2005,04,28,05,14,11.40
2005,04,28,05,15,11.40
2005,04,28,05,16,11.40
2005,04,28,05,17,11.40
2005,04,28,05,18,11.50
2005,04,28,05,19,11.60
2005,04,28,05,20,11.60
2005,04,28,05,21,11.70
2005,04,28,05,22,11.80
2005,04,28,05,23,11.80
2005,04,28,05,24,11.80
2005,04,28,05,25,11.80
2005,04,28,05,26,11.90
2005,04,28,05,27,11.90
2005,04,28,05,28,11.90
2005,04,28,05,29,11.90
2005,04,28,05,30,11.90
2005,04,28,05,31,11.90
2005,04,28,05,32,11.90
2005,04,28,05,33,11.80
2005,04,28,05,34,11.80
2005,04,28,05,35,11.80
2005,04,28,05,36,11.80
2005,04,28,05,37,11.80
2005,04,28,05,38,11.80
2005,04,28,05,39,11.80
2005,04,28,05,40,11.80
2005,04,28,05,41,11.80
2005,04,28,05,42,11.80
2005,04,28,05,43,11.80
2005,04,28,05,44,11.80
2005,04,28,05,45,11.80
2005,04,28,05,46,11.70
2005,04,28,05,47,11.70
2005,04,28,05,48,11.70
2005,04,28,05,49,11.80
2005,04,28,05,50,11.80
2005,04,28,05,51,11.90
2005,04,28,05,52,11.90
2005,04,28,05,53,12.00
2005,04,28,05,54,12.00
2005,04,28,05,55,12.10
2005,04,28,05,56,12.20
2005,04,28,05,57,12.30
2005,04,28,05,58,12.30
2005,04,28,05,59,12.40
2005,04,28,06,00,12.50
2005,04,28,06,01,12.50
2005,04,28,06,02,12.50
2005,04,28,06,03,12.60
2005,04,28,06,04,12.60
2005,04,28,06,05,12.70
2005,04,28,06,06,12.70
2005,04,28,06,07,12.80
2005,04,28,06,08,12.80
2005,04,28,06,09,12.80
2005,04,28,06,10,12.80
2005,04,28,06,11,12.80
2005,04,28,06,12,12.80
2005,04,28,06,13,12.90
2005,04,28,06,14,12.90
2005,04,28,06,15,12.90
2005,04,28,06,16,12.90
2005,04,28,06,17,12.90
2005,04,28,06,18,12.90
2005,04,28,06,19,12.90
2005,04,28,06,20,12.90
2005,04,28,06,21,12.90
2005,04,28,06,22,12.90
2005,04,28,06,23,12.90
2005,04,28,06,24,13.00
2005,04,28,06,25,13.00
2005,04,28,06,26,13.00
2005,04,28,06,27,13.00
2005,04,28,06,28,13.00
2005,04,28,06,29,13.00
2005,04,28,06,30,13.00
2005,04,28,06,31,13.00
2005,04,28,06,32,13.00
2005,04,28,06,33,13.00
2005,04,28,06,34,13.00
2005,04,28,06,35,12.90
2005,04,28,06,36,12.90
2005,04,28,06,37,12.90
2005,04,28,06,38,12.90
2005,04,28,06,39,12.90
2005,04,28,06,40,12.80
2005,04,28,06,41,12.80
2005,04,28,06,42,12.80
2005,04,28,06,43,12.80
2005,04,28,06,44,12.80
2005,04,28,06,45,12.80
2005,04,28,06,46,12.80
2005,04,28,06,47,12.80
2005,04,28,06,48,12.80
2005,04,28,06,49,12.80
2005,04,28,06,50,12.80
2005,04,28,06,51,12.80
2005,04,28,06,52,12.80
2005,04,28,06,53,12.80
2005,04,28,06,54,12.80
2005,04,28,06,55,12.80
2005,04,28,06,56,12.80
2005,04,28,06,57,12.80
2005,04,28,06,58,12.80
2005,04,28,06,59,12.80
2005,04,28,07,00,12.80
2005,04,28,07,01,12.70
2005,04,28,07,02,12.70
2005,04,28,07,03,12.60
2005,04,28,07,04,12.60
2005,04,28,07,05,12.50
2005,04,28,07,06,12.50
2005,04,28,07,07,12.40
2005,04,28,07,08,12.40
2005,04,28,07,09,12.40
2005,04,28,07,10,12.30
2005,04,28,07,11,12.30
2005,04,28,07,12,12.20
2005,04,28,07,13,12.20
2005,04,28,07,14,12.10
2005,04,28,07,15,12.10
2005,04,28,07,16,12.10
2005,04,28,07,21,12.00
2005,04,28,07,22,11.90
2005,04,28,07,23,11.90
2005,04,28,07,24,11.90
2005,04,28,07,25,11.90
2005,04,28,07,26,11.90
2005,04,28,07,27,11.90
2005,04,28,07,28,11.90
2005,04,28,07,29,11.90
2005,04,28,07,30,11.90
2005,04,28,07,31,11.90
2005,04,28,07,32,11.90
2005,04,28,07,33,11.90
2005,04,28,07,34,11.90
2005,04,28,07,35,11.90
2005,04,28,07,36,11.90
2005,04,28,07,37,11.90
2005,04,28,07,38,11.90
2005,04,28,07,39,11.90
2005,04,28,07,40,11.90
2005,04,28,07,41,12.00
2005,04,28,07,42,12.00
2005,04,28,07,43,12.00
2005,04,28,07,44,12.10
2005,04,28,07,45,12.10
2005,04,28,07,46,12.20
2005,04,28,07,47,12.20
2005,04,28,07,48,12.30
2005,04,28,07,49,12.30
2005,04,28,07,50,12.30
2005,04,28,07,51,12.30
2005,04,28,07,52,12.40
2005,04,28,07,53,12.50
2005,04,28,07,54,12.60
2005,04,28,07,55,12.60
2005,04,28,07,56,12.70
2005,04,28,07,57,12.80
2005,04,28,07,58,12.80
2005,04,28,07,59,12.80
2005,04,28,08,00,12.90
2005,04,28,08,01,12.90
2005,04,28,08,02,13.00
2005,04,28,08,03,13.00
2005,04,28,08,04,13.00
2005,04,28,08,05,13.10
2005,04,28,08,06,13.10
2005,04,28,08,07,13.00
2005,04,28,08,08,13.00
2005,04,28,08,09,12.90
2005,04,28,08,10,12.90
2005,04,28,08,11,12.80
2005,04,28,08,12,12.80
2005,04,28,08,13,12.80
2005,04,28,08,14,12.80
2005,04,28,08,15,12.80
2005,04,28,08,16,12.80
2005,04,28,08,17,12.80
2005,04,28,08,18,12.80
2005,04,28,08,19,12.80
2005,04,28,08,20,12.80
2005,04,28,08,21,12.80
2005,04,28,08,22,12.70
2005,04,28,08,23,12.70
2005,04,28,08,24,12.70
2005,04,28,08,25,12.70
2005,04,28,08,26,12.70
2005,04,28,08,27,12.70
2005,04,28,08,28,12.70
2005,04,28,08,29,12.70
2005,04,28,08,30,12.70
2005,04,28,08,31,12.70
2005,04,28,08,32,12.60
2005,04,28,08,33,12.60
2005,04,28,08,34,12.60
2005,04,28,08,35,12.60
2005,04,28,08,36,12.60
2005,04,28,08,37,12.60
2005,04,28,08,38,12.50
2005,04,28,08,39,12.50
2005,04,28,08,40,12.60
2005,04,28,08,41,12.60
2005,04,28,08,42,12.60
2005,04,28,08,43,12.60
2005,04,28,08,44,12.60
2005,04,28,08,45,12.60
2005,04,28,08,46,12.60
2005,04,28,08,47,12.60
2005,04,28,08,48,12.60
2005,04,28,08,49,12.60
2005,04,28,08,50,12.60
2005,04,28,08,51,12.60
2005,04,28,08,52,12.60
2005,04,28,08,53,12.60
2005,04,28,08,54,12.60
2005,04,28,08,55,12.50
2005,04,28,08,56,12.50
2005,04,28,08,57,12.50
2005,04,28,08,58,12.60
2005,04,28,08,59,12.60
2005,04,28,09,00,12.60
2005,04,28,09,01,12.60
2005,04,28,09,02,12.60
2005,04,28,09,03,12.60
2005,04,28,09,04,12.60
2005,04,28,09,05,12.60
2005,04,28,09,06,12.50
2005,04,28,09,07,12.50
2005,04,28,09,08,12.50
2005,04,28,09,09,12.60
2005,04,28,09,10,12.60
2005,04,28,09,11,12.70
2005,04,28,09,12,12.80
2005,04,28,09,13,12.80
2005,04,28,09,14,12.80
2005,04,28,09,15,12.80
2005,04,28,09,16,12.80
2005,04,28,09,17,12.70
2005,04,28,09,18,12.70
2005,04,28,09,19,12.70
2005,04,28,09,20,12.70
2005,04,28,09,21,12.70
2005,04,28,09,22,12.60
2005,04,28,09,23,12.60
2005,04,28,09,24,12.60
2005,04,28,09,25,12.60
2005,04,28,09,26,12.60
2005,04,28,09,27,12.60
2005,04,28,09,28,12.60
2005,04,28,09,29,12.50
2005,04,28,09,30,12.50
2005,04,28,09,31,12.50
2005,04,28,09,32,12.50
2005,04,28,09,33,12.50
2005,04,28,09,34,12.50
2005,04,28,09,35,12.50
2005,04,28,09,36,12.50
2005,04,28,09,37,12.50
2005,04,28,09,38,12.50
2005,04,28,09,39,12.60
2005,04,28,09,40,12.70
2005,04,28,09,41,12.80
2005,04,28,09,42,12.80
2005,04,28,09,43,12.80
2005,04,28,09,44,12.80
2005,04,28,09,45,12.80
2005,04,28,09,46,12.90
2005,04,28,09,47,12.90
2005,04,28,09,48,13.00
2005,04,28,09,49,13.10
2005,04,28,09,50,13.10
2005,04,28,09,51,13.20
2005,04,28,09,52,13.20
2005,04,28,09,53,13.30
2005,04,28,09,54,13.30
2005,04,28,09,55,13.20
2005,04,28,09,56,13.20
2005,04,28,09,57,13.20
2005,04,28,09,58,13.20
2005,04,28,09,59,13.20
2005,04,28,10,00,13.30
2005,04,28,10,01,13.20
2005,04,28,10,02,13.20
2005,04,28,10,03,13.20
2005,04,28,10,04,13.30
2005,04,28,10,05,13.30
2005,04,28,10,06,13.40
2005,04,28,10,07,13.40
2005,04,28,10,08,13.40
2005,04,28,10,09,13.50
2005,04,28,10,10,13.50
2005,04,28,10,11,13.50
2005,04,28,10,12,13.60
2005,04,28,10,13,13.60
2005,04,28,10,14,13.60
2005,04,28,10,15,13.60
2005,04,28,10,16,13.60
2005,04,28,10,17,13.60
2005,04,28,10,18,13.50
2005,04,28,10,19,13.40
2005,04,28,10,20,13.40
2005,04,28,10,21,13.40
2005,04,28,10,22,13.30
2005,04,28,10,23,13.30
2005,04,28,10,24,13.30
2005,04,28,10,25,13.30
2005,04,28,10,26,13.30
2005,04,28,10,27,13.40
2005,04,28,10,28,13.40
2005,04,28,10,29,13.50
2005,04,28,10,30,13.60
2005,04,28,10,31,13.60
2005,04,28,10,32,13.60
2005,04,28,10,33,13.60
2005,04,28,10,34,13.60
2005,04,28,10,35,13.60
2005,04,28,10,36,13.60
2005,04,28,10,37,13.50
2005,04,28,10,38,13.50
2005,04,28,10,39,13.40
2005,04,28,10,40,13.30
2005,04,28,10,41,13.30
2005,04,28,10,42,13.30
2005,04,28,10,43,13.30
2005,04,28,10,44,13.30
2005,04,28,10,45,13.30
2005,04,28,10,46,13.20
2005,04,28,10,47,13.20
2005,04,28,10,48,13.20
2005,04,28,10,49,13.20
2005,04,28,10,50,13.30
2005,04,28,10,51,13.30
2005,04,28,10,52,13.30
2005,04,28,10,53,13.40
2005,04,28,10,54,13.40
2005,04,28,10,55,13.40
2005,04,28,10,56,13.30
2005,04,28,10,57,13.30
2005,04,28,10,58,13.30
2005,04,28,10,59,13.30
2005,04,28,11,00,13.30
2005,04,28,11,01,13.30
2005,04,28,11,02,13.30
2005,04,28,11,03,13.20
2005,04,28,11,04,13.10
2005,04,28,11,05,13.20
2005,04,28,11,06,13.20
2005,04,28,11,07,13.30
2005,04,28,11,08,13.30
2005,04,28,11,09,13.40
2005,04,28,11,10,13.50
2005,04,28,11,11,13.60
2005,04,28,11,12,13.70
2005,04,28,11,13,13.70
2005,04,28,11,14,13.80
2005,04,28,11,15,13.90
2005,04,28,11,16,13.90
2005,04,28,11,17,13.90
2005,04,28,11,18,13.90
2005,04,28,11,19,13.80
2005,04,28,11,20,13.90
2005,04,28,11,21,13.90
2005,04,28,11,22,13.80
2005,04,28,11,23,13.90
2005,04,28,11,24,13.90
2005,04,28,11,25,13.90
2005,04,28,11,26,13.90
2005,04,28,11,27,13.90
2005,04,28,11,28,13.90
2005,04,28,11,29,13.90
2005,04,28,11,30,14.00
2005,04,28,11,31,14.00
2005,04,28,11,32,14.10
2005,04,28,11,33,14.10
2005,04,28,11,34,14.20
2005,04,28,11,35,14.20
2005,04,28,11,36,14.10
2005,04,28,11,37,14.00
2005,04,28,11,38,14.00
2005,04,28,11,39,14.00
2005,04,28,11,40,14.00
2005,04,28,11,41,14.00
2005,04,28,11,42,14.00
2005,04,28,11,43,14.00
2005,04,28,11,44,14.00
2005,04,28,11,45,14.10
2005,04,28,11,46,14.10
2005,04,28,11,47,14.10
2005,04,28,11,48,14.20
2005,04,28,11,49,14.20
2005,04,28,11,50,14.20
2005,04,28,11,51,14.20
2005,04,28,11,52,14.20
2005,04,28,11,53,14.30
2005,04,28,11,54,14.30
2005,04,28,11,55,14.40
2005,04,28,11,56,14.40
2005,04,28,11,57,14.50
2005,04,28,11,58,14.50
2005,04,28,11,59,14.60
2005,04,28,12,00,14.70
2005,04,28,12,01,14.80
2005,04,28,12,02,14.80
2005,04,28,12,03,14.90
2005,04,28,12,04,14.90
2005,04,28,12,05,14.90
2005,04,28,12,06,15.00
2005,04,28,12,07,15.10
2005,04,28,12,08,15.00
2005,04,28,12,09,15.00
2005,04,28,12,10,15.00
2005,04,28,12,11,15.10
2005,04,28,12,12,15.10
2005,04,28,12,13,15.10
2005,04,28,12,14,15.00
2005,04,28,12,15,15.00
2005,04,28,12,16,15.10
2005,04,28,12,17,15.20
2005,04,28,12,18,15.30
2005,04,28,12,19,15.30
2005,04,28,12,20,15.30
2005,04,28,12,21,15.30
2005,04,28,12,22,15.30
2005,04,28,12,23,15.30
2005,04,28,12,24,15.40
2005,04,28,12,25,15.40
2005,04,28,12,26,15.40
2005,04,28,12,27,15.40
2005,04,28,12,28,15.40
2005,04,28,12,29,15.40
2005,04,28,12,30,15.40
2005,04,28,12,31,15.50
2005,04,28,12,32,15.50
2005,04,28,12,33,15.60
2005,04,28,12,34,15.60
2005,04,28,12,35,15.70
2005,04,28,12,36,15.60
2005,04,28,12,37,15.60
2005,04,28,12,38,15.50
2005,04,28,12,39,15.60
2005,04,28,12,40,15.60
2005,04,28,12,41,15.60
2005,04,28,12,42,15.60
2005,04,28,12,43,15.60
2005,04,28,12,44,15.70
2005,04,28,12,45,15.80
2005,04,28,12,46,15.80
2005,04,28,12,47,15.80
2005,04,28,12,48,15.80
2005,04,28,12,49,15.80
2005,04,28,12,50,16.00
2005,04,28,12,51,16.10
2005,04,28,12,52,16.20
2005,04,28,12,53,16.30
2005,04,28,12,54,16.40
2005,04,28,12,55,16.40
2005,04,28,12,56,16.40
2005,04,28,12,57,16.40
2005,04,28,12,58,16.30
2005,04,28,12,59,16.30
2005,04,28,13,00,16.30
2005,04,28,13,01,16.20
2005,04,28,13,02,16.20
2005,04,28,13,03,16.20
2005,04,28,13,04,16.20
2005,04,28,13,05,16.30
2005,04,28,13,06,16.40
2005,04,28,13,07,16.40
2005,04,28,13,08,16.40
2005,04,28,13,09,16.40
2005,04,28,13,10,16.40
2005,04,28,13,11,16.60
2005,04,28,13,12,16.60
2005,04,28,13,13,16.70
2005,04,28,13,14,16.70
2005,04,28,13,15,16.70
2005,04,28,13,16,16.70
2005,04,28,13,17,16.70
2005,04,28,13,18,16.70
2005,04,28,13,19,16.70
2005,04,28,13,20,16.70
2005,04,28,13,21,16.70
2005,04,28,13,22,16.70
2005,04,28,13,23,16.80
2005,04,28,13,24,16.90
2005,04,28,13,25,17.00
2005,04,28,13,26,17.10
2005,04,28,13,27,17.20
2005,04,28,13,28,17.20
2005,04,28,13,29,17.30
2005,04,28,13,30,17.30
2005,04,28,13,31,17.50
2005,04,28,13,32,17.60
2005,04,28,13,33,17.50
2005,04,28,13,34,17.40
2005,04,28,13,35,17.40
2005,04,28,13,36,17.40
2005,04,28,13,37,17.50
2005,04,28,13,38,17.60
2005,04,28,13,39,17.80
2005,04,28,13,40,17.80
2005,04,28,13,41,17.80
2005,04,28,13,42,17.90
2005,04,28,13,43,17.90
2005,04,28,13,44,17.80
2005,04,28,13,45,17.80
2005,04,28,13,46,17.80
2005,04,28,13,47,17.80
2005,04,28,13,48,17.70
2005,04,28,13,49,17.70
2005,04,28,13,50,17.70
2005,04,28,13,51,17.60
2005,04,28,13,52,17.60
2005,04,28,13,53,17.60
2005,04,28,13,54,17.70
2005,04,28,13,55,17.70
2005,04,28,13,56,17.60
2005,04,28,13,57,17.50
2005,04,28,13,58,17.50
2005,04,28,13,59,17.60
2005,04,28,14,00,17.70
2005,04,28,14,01,17.90
2005,04,28,14,02,18.10
2005,04,28,14,03,18.20
2005,04,28,14,04,18.20
2005,04,28,14,05,18.20
2005,04,28,14,06,18.20
2005,04,28,14,07,18.40
2005,04,28,14,08,18.40
2005,04,28,14,09,18.50
2005,04,28,14,10,18.50
2005,04,28,14,11,18.50
2005,04,28,14,12,18.50
2005,04,28,14,13,18.50
2005,04,28,14,14,18.50
2005,04,28,14,15,18.60
2005,04,28,14,16,18.40
2005,04,28,14,17,18.30
2005,04,28,14,18,18.20
2005,04,28,14,19,18.10
2005,04,28,14,20,18.10
2005,04,28,14,21,18.10
2005,04,28,14,22,18.10
2005,04,28,14,23,18.20
2005,04,28,14,24,18.20
2005,04,28,14,25,18.20
2005,04,28,14,26,18.20
2005,04,28,14,27,18.20
2005,04,28,14,28,18.20
2005,04,28,14,29,18.20
2005,04,28,14,30,18.20
2005,04,28,14,31,18.20
2005,04,28,14,32,18.20
2005,04,28,14,33,18.20
2005,04,28,14,34,18.30
2005,04,28,14,35,18.40
2005,04,28,14,36,18.40
2005,04,28,14,37,18.30
2005,04,28,14,38,18.30
2005,04,28,14,39,18.20
2005,04,28,14,40,18.20
2005,04,28,14,41,18.20
2005,04,28,14,42,18.10
2005,04,28,14,43,18.10
2005,04,28,14,44,18.10
2005,04,28,14,45,18.10
2005,04,28,14,46,18.10
2005,04,28,14,47,18.10
2005,04,28,14,48,18.10
2005,04,28,14,49,18.10
2005,04,28,14,50,18.20
2005,04,28,14,51,18.20
2005,04,28,14,52,18.20
2005,04,28,14,53,18.30
2005,04,28,14,54,18.30
2005,04,28,14,55,18.30
2005,04,28,14,56,18.30
2005,04,28,14,57,18.40
2005,04,28,14,58,18.70
2005,04,28,14,59,18.80
2005,04,28,15,00,18.70
2005,04,28,15,01,18.70
2005,04,28,15,02,18.70
2005,04,28,15,03,18.80
2005,04,28,15,04,18.70
2005,04,28,15,05,18.70
2005,04,28,15,06,18.80
2005,04,28,15,07,18.80
2005,04,28,15,08,18.80
2005,04,28,15,09,18.80
2005,04,28,15,10,18.90
2005,04,28,15,11,18.90
2005,04,28,15,12,18.80
2005,04,28,15,13,18.70
2005,04,28,15,14,18.70
2005,04,28,15,15,18.60
2005,04,28,15,16,18.60
2005,04,28,15,17,18.60
2005,04,28,15,18,18.70
2005,04,28,15,19,18.70
2005,04,28,15,20,18.80
2005,04,28,15,21,18.80
2005,04,28,15,22,18.70
2005,04,28,15,23,18.60
2005,04,28,15,24,18.60
2005,04,28,15,25,18.60
2005,04,28,15,26,18.50
2005,04,28,15,27,18.50
2005,04,28,15,28,18.50
2005,04,28,15,29,18.50
2005,04,28,15,30,18.60
2005,04,28,15,31,18.50
2005,04,28,15,32,18.50
2005,04,28,15,33,18.60
2005,04,28,15,34,18.70
2005,04,28,15,35,18.90
2005,04,28,15,36,18.90
2005,04,28,15,37,19.10
2005,04,28,15,38,18.80
2005,04,28,15,39,18.40
2005,04,28,15,40,18.20
2005,04,28,15,41,18.20
2005,04,28,15,42,18.20
2005,04,28,15,43,18.20
2005,04,28,15,44,18.20
2005,04,28,15,45,18.20
2005,04,28,15,46,18.20
2005,04,28,15,47,18.20
2005,04,28,15,48,18.00
2005,04,28,15,49,17.80
2005,04,28,15,50,17.70
2005,04,28,15,51,17.60
2005,04,28,15,52,17.60
2005,04,28,15,53,17.60
2005,04,28,15,54,17.60
2005,04,28,15,55,17.60
2005,04,28,15,56,17.60
2005,04,28,15,57,17.50
2005,04,28,15,58,17.50
2005,04,28,15,59,17.50
2005,04,28,16,00,17.40
2005,04,28,16,01,17.40
2005,04,28,16,02,17.60
2005,04,28,16,03,17.70
2005,04,28,16,04,17.90
2005,04,28,16,05,18.00
2005,04,28,16,06,18.20
2005,04,28,16,07,18.30
2005,04,28,16,08,18.40
2005,04,28,16,09,18.40
2005,04,28,16,10,18.40
2005,04,28,16,11,18.50
2005,04,28,16,12,18.60
2005,04,28,16,13,18.70
2005,04,28,16,14,18.70
2005,04,28,16,15,18.70
2005,04,28,16,16,18.60
2005,04,28,16,17,18.60
2005,04,28,16,18,18.60
2005,04,28,16,19,18.70
2005,04,28,16,20,18.70
2005,04,28,16,21,18.70
2005,04,28,16,22,18.70
2005,04,28,16,23,18.70
2005,04,28,16,24,18.70
2005,04,28,16,25,18.90
2005,04,28,16,26,18.90
2005,04,28,16,27,19.10
2005,04,28,16,28,19.10
2005,04,28,16,29,18.90
2005,04,28,16,30,18.90
2005,04,28,16,31,18.80
2005,04,28,16,32,18.80
2005,04,28,16,33,19.00
2005,04,28,16,34,19.10
2005,04,28,16,35,19.10
2005,04,28,16,36,19.20
2005,04,28,16,37,19.20
2005,04,28,16,38,19.20
2005,04,28,16,39,19.20
2005,04,28,16,40,19.10
2005,04,28,16,41,19.10
2005,04,28,16,42,19.10
2005,04,28,16,43,19.10
2005,04,28,16,44,19.10
2005,04,28,16,45,19.10
2005,04,28,16,46,19.10
2005,04,28,16,47,19.10
2005,04,28,16,48,19.00
2005,04,28,16,49,18.90
2005,04,28,16,50,18.90
2005,04,28,16,51,18.90
2005,04,28,16,52,18.70
2005,04,28,16,53,18.60
2005,04,28,16,54,18.40
2005,04,28,16,55,18.40
2005,04,28,16,56,18.30
2005,04,28,16,57,18.30
2005,04,28,16,58,18.30
2005,04,28,16,59,18.30
2005,04,28,17,00,18.30
2005,04,28,17,01,18.20
2005,04,28,17,02,18.20
2005,04,28,17,03,18.20
2005,04,28,17,04,18.10
2005,04,28,17,05,17.90
2005,04,28,17,06,17.90
2005,04,28,17,07,17.80
2005,04,28,17,08,17.60
2005,04,28,17,09,17.50
2005,04,28,17,10,17.50
2005,04,28,17,11,17.50
2005,04,28,17,12,17.50
2005,04,28,17,13,17.50
2005,04,28,17,14,17.50
2005,04,28,17,15,17.50
2005,04,28,17,16,17.50
2005,04,28,17,17,17.50
2005,04,28,17,18,17.40
2005,04,28,17,19,17.30
2005,04,28,17,20,17.30
2005,04,28,17,21,17.30
2005,04,28,17,22,17.30
2005,04,28,17,23,17.30
2005,04,28,17,24,17.20
2005,04,28,17,25,17.20
2005,04,28,17,26,17.10
2005,04,28,17,27,17.00
2005,04,28,17,28,17.00
2005,04,28,17,29,17.00
2005,04,28,17,30,17.10
2005,04,28,17,31,17.20
2005,04,28,17,32,17.30